User: anonymous   Login
Location: Newark
(42.8481°N, 0.4872°E)
Time: 20:29:53
(UTC+00:00)
Language:

Explorer 7 - Orbit

View from above orbital plane
View from above orbital plane
View from above satellite
View from above satellite

Ground track
Ground track

The orbit data is extracted from the following two-line orbital elements,

1    22U 59009A   20301.89957003 +.00000499 +00000-0 +60265-4 0  9999
2    22 050.2833 200.5817 0139471 044.7602 316.4500 14.95252292490180
Epoch (UTC): 27 October 2020 21:35:22
Eccentricity: 0.0139471
inclination: 50.2833°
perigee height: 484 km
apogee height: 678 km
right ascension of ascending node: 200.5817°
argument of perigee: 44.7602°
revolutions per day: 14.95252292
mean anomaly at epoch: 316.4500°
orbit number at epoch: 49018

The dashed part of the orbit path shows where the satellite is in the earth's shadow,  

DLR